Time,TemperatureF,DewpointF,PressureIn,WindDirection,WindDirectionDegrees,WindSpeedMPH,WindSpeedGustMPH,Humidity,HourlyPrecipIn,Conditions,Clouds,dailyrainin,SoftwareType,DateUTC
2013-09-23 00:01:00,48.3,44.6,30.27,ESE,104,5.0,5.0,87,0.00,,---,0.00,VWS V13.01,2013-09-23 04:01:00,
2013-09-23 00:02:00,48.3,44.3,30.27,ESE,104,0.0,5.0,86,0.00,,---,0.00,VWS V13.01,2013-09-23 04:02:00,
2013-09-23 00:03:00,48.3,44.3,30.27,ESE,104,0.0,5.0,86,0.00,,---,0.00,VWS V13.01,2013-09-23 04:03:00,
2013-09-23 00:04:00,48.3,44.0,30.27,East,99,2.0,7.0,85,0.00,,---,0.00,VWS V13.01,2013-09-23 04:04:00,
2013-09-23 00:09:00,48.3,44.0,30.28,East,98,0.0,7.0,85,0.00,,---,0.00,VWS V13.01,2013-09-23 04:09:00,
2013-09-23 00:14:00,48.3,44.3,30.28,East,98,0.0,7.0,86,0.00,,---,0.00,VWS V13.01,2013-09-23 04:14:00,
2013-09-23 00:19:00,48.2,43.6,30.28,East,98,0.0,7.0,84,0.00,,---,0.00,VWS V13.01,2013-09-23 04:19:00,
2013-09-23 00:24:00,48.2,43.6,30.28,East,98,0.0,7.0,84,0.00,,---,0.00,VWS V13.01,2013-09-23 04:24:00,
2013-09-23 00:29:00,48.2,44.8,30.28,East,98,0.0,7.0,88,0.00,,---,0.00,VWS V13.01,2013-09-23 04:29:00,
2013-09-23 00:34:00,48.1,43.5,30.28,East,98,0.0,1.0,84,0.00,,---,0.00,VWS V13.01,2013-09-23 04:34:00,
2013-09-23 00:39:00,48.1,43.5,30.28,East,97,0.0,1.0,84,0.00,,---,0.00,VWS V13.01,2013-09-23 04:39:00,
2013-09-23 00:44:00,48.1,43.8,30.28,East,97,0.0,1.0,85,0.00,,---,0.00,VWS V13.01,2013-09-23 04:44:00,
2013-09-23 00:50:00,48.0,43.4,30.29,East,96,0.0,1.0,84,0.00,,---,0.00,VWS V13.01,2013-09-23 04:50:00,
2013-09-23 00:56:00,47.9,43.3,30.29,East,96,0.0,1.0,84,0.00,,---,0.00,VWS V13.01,2013-09-23 04:56:00,
2013-09-23 01:01:00,47.9,43.6,30.29,East,96,0.0,3.0,85,0.00,,---,0.00,VWS V13.01,2013-09-23 05:01:00,
2013-09-23 01:06:00,47.8,43.2,30.29,East,96,0.0,3.0,84,0.00,,---,0.00,VWS V13.01,2013-09-23 05:06:00,
2013-09-23 01:11:00,47.8,43.2,30.29,East,90,0.0,5.0,84,0.00,,---,0.00,VWS V13.01,2013-09-23 05:11:00,
2013-09-23 01:16:00,47.8,43.5,30.29,East,90,0.0,5.0,85,0.00,,---,0.00,VWS V13.01,2013-09-23 05:16:00,
2013-09-23 01:21:00,47.8,43.5,30.29,East,90,0.0,5.0,85,0.00,,---,0.00,VWS V13.01,2013-09-23 05:21:00,
2013-09-23 01:26:00,47.7,43.4,30.29,East,90,0.0,5.0,85,0.00,,---,0.00,VWS V13.01,2013-09-23 05:26:00,
2013-09-23 01:31:00,47.6,43.3,30.30,East,90,0.0,0.0,85,0.00,,---,0.00,VWS V13.01,2013-09-23 05:31:00,
2013-09-23 01:36:00,47.6,43.3,30.30,East,90,0.0,0.0,85,0.00,,---,0.00,VWS V13.01,2013-09-23 05:36:00,
2013-09-23 01:41:00,47.6,43.3,30.30,East,90,0.0,1.0,85,0.00,,---,0.00,VWS V13.01,2013-09-23 05:41:00,
2013-09-23 01:46:00,47.5,43.5,30.30,East,90,0.0,1.0,86,0.00,,---,0.00,VWS V13.01,2013-09-23 05:46:00,
2013-09-23 01:51:00,47.4,43.7,30.30,East,90,0.0,1.0,87,0.00,,---,0.00,VWS V13.01,2013-09-23 05:51:00,
2013-09-23 01:56:00,47.3,43.6,30.31,East,90,0.0,1.0,87,0.00,,---,0.00,VWS V13.01,2013-09-23 05:56:00,
2013-09-23 02:01:00,47.2,43.5,30.31,East,90,0.0,0.0,87,0.00,,---,0.00,VWS V13.01,2013-09-23 06:01:00,
2013-09-23 02:07:00,47.2,43.5,30.30,East,90,0.0,0.0,87,0.00,,---,0.00,VWS V13.01,2013-09-23 06:07:00,
2013-09-23 02:12:00,47.2,43.2,30.30,East,90,0.0,0.0,86,0.00,,---,0.00,VWS V13.01,2013-09-23 06:12:00,
2013-09-23 02:17:00,47.3,43.6,30.29,East,90,0.0,0.0,87,0.00,,---,0.00,VWS V13.01,2013-09-23 06:17:00,
2013-09-23 02:22:00,47.2,43.5,30.29,East,90,0.0,0.0,87,0.00,,---,0.00,VWS V13.01,2013-09-23 06:22:00,
2013-09-23 02:27:00,47.2,43.5,30.29,East,90,0.0,0.0,87,0.00,,---,0.00,VWS V13.01,2013-09-23 06:27:00,
2013-09-23 02:32:00,47.2,43.5,30.29,East,90,0.0,0.0,87,0.00,,---,0.00,VWS V13.01,2013-09-23 06:32:00,
2013-09-23 02:37:00,47.2,43.2,30.29,East,90,0.0,0.0,86,0.00,,---,0.00,VWS V13.01,2013-09-23 06:37:00,
2013-09-23 02:42:00,47.2,43.2,30.29,East,90,0.0,1.0,86,0.00,,---,0.00,VWS V13.01,2013-09-23 06:42:00,
2013-09-23 02:47:00,47.1,43.1,30.28,East,90,0.0,1.0,86,0.00,,---,0.00,VWS V13.01,2013-09-23 06:47:00,
2013-09-23 02:52:00,47.1,43.1,30.28,East,90,0.0,1.0,86,0.00,,---,0.00,VWS V13.01,2013-09-23 06:52:00,
2013-09-23 02:57:00,47.0,43.0,30.28,East,90,0.0,1.0,86,0.00,,---,0.00,VWS V13.01,2013-09-23 06:57:00,
2013-09-23 03:02:00,47.0,43.0,30.28,East,90,0.0,0.0,86,0.00,,---,0.00,VWS V13.01,2013-09-23 07:02:00,
2013-09-23 03:07:00,46.9,42.3,30.27,East,90,0.0,0.0,84,0.00,,---,0.00,VWS V13.01,2013-09-23 07:07:00,
2013-09-23 03:12:00,47.0,42.7,30.26,East,90,0.0,1.0,85,0.00,,---,0.00,VWS V13.01,2013-09-23 07:12:00,
2013-09-23 03:17:00,46.9,42.6,30.26,East,90,0.0,1.0,85,0.00,,---,0.00,VWS V13.01,2013-09-23 07:17:00,
2013-09-23 03:22:00,46.9,42.9,30.26,East,90,0.0,1.0,86,0.00,,---,0.00,VWS V13.01,2013-09-23 07:22:00,
2013-09-23 03:28:00,46.9,42.6,30.25,East,90,0.0,1.0,85,0.00,,---,0.00,VWS V13.01,2013-09-23 07:28:00,
2013-09-23 03:33:00,46.8,42.8,30.25,East,90,0.0,0.0,86,0.00,,---,0.00,VWS V13.01,2013-09-23 07:33:00,
2013-09-23 03:38:00,46.8,42.8,30.25,East,90,0.0,0.0,86,0.00,,---,0.00,VWS V13.01,2013-09-23 07:38:00,
2013-09-23 03:43:00,46.8,43.1,30.25,East,90,0.0,0.0,87,0.00,,---,0.00,VWS V13.01,2013-09-23 07:43:00,
2013-09-23 03:48:00,46.7,42.7,30.25,East,90,0.0,0.0,86,0.00,,---,0.00,VWS V13.01,2013-09-23 07:48:00,
2013-09-23 03:53:00,46.7,42.4,30.24,East,90,0.0,0.0,85,0.00,,---,0.00,VWS V13.01,2013-09-23 07:53:00,
2013-09-23 03:58:00,46.8,42.2,30.24,East,90,0.0,1.0,84,0.00,,---,0.00,VWS V13.01,2013-09-23 07:58:00,
2013-09-23 04:03:00,46.8,42.5,30.24,East,90,0.0,0.0,85,0.00,,---,0.00,VWS V13.01,2013-09-23 08:03:00,
2013-09-23 04:08:00,46.9,42.3,30.23,East,91,0.0,5.0,84,0.00,,---,0.00,VWS V13.01,2013-09-23 08:08:00,
2013-09-23 04:13:00,46.9,42.3,30.23,East,91,0.0,5.0,84,0.00,,---,0.00,VWS V13.01,2013-09-23 08:13:00,
2013-09-23 04:18:00,46.9,42.6,30.22,East,91,0.0,5.0,85,0.00,,---,0.00,VWS V13.01,2013-09-23 08:18:00,
2013-09-23 04:23:00,46.9,42.9,30.21,East,91,0.0,5.0,86,0.00,,---,0.00,VWS V13.01,2013-09-23 08:23:00,
2013-09-23 04:28:00,46.7,43.0,30.21,East,91,0.0,5.0,87,0.00,,---,0.00,VWS V13.01,2013-09-23 08:28:00,
2013-09-23 04:33:00,46.6,42.9,30.20,East,91,0.0,0.0,87,0.00,,---,0.00,VWS V13.01,2013-09-23 08:33:00,
2013-09-23 04:38:00,46.4,43.0,30.20,East,91,0.0,0.0,88,0.00,,---,0.00,VWS V13.01,2013-09-23 08:38:00,
2013-09-23 04:43:00,46.3,42.7,30.20,East,91,0.0,0.0,87,0.00,,---,0.00,VWS V13.01,2013-09-23 08:43:00,
2013-09-23 04:49:00,46.3,43.0,30.19,East,91,0.0,0.0,88,0.00,,---,0.00,VWS V13.01,2013-09-23 08:49:00,
2013-09-23 04:54:00,46.3,43.2,30.19,East,91,0.0,0.0,89,0.00,,---,0.00,VWS V13.01,2013-09-23 08:54:00,
2013-09-23 04:59:00,46.2,43.1,30.19,East,91,0.0,0.0,89,0.00,,---,0.00,VWS V13.01,2013-09-23 08:59:00,
2013-09-23 05:04:00,46.2,43.4,30.18,East,91,0.0,0.0,90,0.00,,---,0.00,VWS V13.01,2013-09-23 09:04:00,
2013-09-23 05:09:00,46.1,43.3,30.18,East,91,0.0,0.0,90,0.00,,---,0.00,VWS V13.01,2013-09-23 09:09:00,
2013-09-23 05:14:00,45.9,43.1,30.18,East,91,0.0,0.0,90,0.00,,---,0.00,VWS V13.01,2013-09-23 09:14:00,
2013-09-23 05:19:00,45.9,43.1,30.17,East,91,0.0,0.0,90,0.00,,---,0.00,VWS V13.01,2013-09-23 09:19:00,
2013-09-23 05:24:00,45.9,43.4,30.17,East,91,0.0,0.0,91,0.00,,---,0.00,VWS V13.01,2013-09-23 09:24:00,
2013-09-23 05:29:00,45.9,43.4,30.17,East,91,0.0,0.0,91,0.00,,---,0.00,VWS V13.01,2013-09-23 09:29:00,
2013-09-23 05:34:00,45.9,43.4,30.17,East,91,0.0,0.0,91,0.00,,---,0.00,VWS V13.01,2013-09-23 09:34:00,
2013-09-23 05:40:00,45.8,43.3,30.17,East,91,0.0,0.0,91,0.00,,---,0.00,VWS V13.01,2013-09-23 09:40:00,
2013-09-23 05:45:00,45.7,43.2,30.16,East,91,0.0,0.0,91,0.00,,---,0.00,VWS V13.01,2013-09-23 09:45:00,
2013-09-23 05:50:00,45.6,43.1,30.16,East,91,0.0,0.0,91,0.00,,---,0.00,VWS V13.01,2013-09-23 09:50:00,
2013-09-23 05:55:00,45.6,43.4,30.16,East,91,0.0,0.0,92,0.00,,---,0.00,VWS V13.01,2013-09-23 09:55:00,
2013-09-23 06:00:00,45.6,43.4,30.16,East,91,0.0,0.0,92,0.00,,---,0.00,VWS V13.01,2013-09-23 10:00:00,
2013-09-23 06:05:00,45.6,43.4,30.15,East,91,0.0,0.0,92,0.00,,---,0.00,VWS V13.01,2013-09-23 10:05:00,
2013-09-23 06:10:00,45.6,43.4,30.15,East,91,0.0,0.0,92,0.00,,---,0.00,VWS V13.01,2013-09-23 10:10:00,
2013-09-23 06:15:00,45.5,43.3,30.14,East,91,0.0,0.0,92,0.00,,---,0.00,VWS V13.01,2013-09-23 10:15:00,
2013-09-23 06:20:00,45.6,43.4,30.14,East,91,0.0,0.0,92,0.00,,---,0.00,VWS V13.01,2013-09-23 10:20:00,
2013-09-23 06:25:00,45.6,43.7,30.14,East,91,0.0,0.0,93,0.00,,---,0.00,VWS V13.01,2013-09-23 10:25:00,
2013-09-23 06:30:00,45.6,43.7,30.14,East,91,0.0,0.0,93,0.00,,---,0.00,VWS V13.01,2013-09-23 10:30:00,
2013-09-23 06:35:00,45.6,43.7,30.13,East,91,0.0,0.0,93,0.00,,---,0.00,VWS V13.01,2013-09-23 10:35:00,
2013-09-23 06:40:00,45.6,43.7,30.13,East,91,0.0,0.0,93,0.00,,---,0.00,VWS V13.01,2013-09-23 10:40:00,
2013-09-23 06:46:00,45.6,43.7,30.13,East,91,0.0,0.0,93,0.00,,---,0.00,VWS V13.01,2013-09-23 10:46:00,
2013-09-23 06:51:00,45.6,43.7,30.13,East,91,0.0,0.0,93,0.00,,---,0.00,VWS V13.01,2013-09-23 10:51:00,
2013-09-23 06:56:00,45.5,43.6,30.13,East,91,0.0,0.0,93,0.00,,---,0.00,VWS V13.01,2013-09-23 10:56:00,
2013-09-23 07:01:00,45.6,43.7,30.13,East,91,0.0,0.0,93,0.00,,---,0.00,VWS V13.01,2013-09-23 11:01:00,
2013-09-23 07:06:00,45.6,43.7,30.12,East,91,0.0,0.0,93,0.00,,---,0.00,VWS V13.01,2013-09-23 11:06:00,
2013-09-23 07:11:00,45.6,43.7,30.12,East,91,0.0,0.0,93,0.00,,---,0.00,VWS V13.01,2013-09-23 11:11:00,
2013-09-23 07:16:00,45.6,43.7,30.12,East,91,0.0,0.0,93,0.00,,---,0.00,VWS V13.01,2013-09-23 11:16:00,
2013-09-23 07:21:00,45.5,43.6,30.12,East,91,0.0,0.0,93,0.00,,---,0.00,VWS V13.01,2013-09-23 11:21:00,
2013-09-23 07:26:00,45.5,43.6,30.11,East,91,0.0,0.0,93,0.00,,---,0.00,VWS V13.01,2013-09-23 11:26:00,
2013-09-23 07:31:00,45.6,43.7,30.11,East,91,0.0,0.0,93,0.00,,---,0.00,VWS V13.01,2013-09-23 11:31:00,
2013-09-23 07:36:00,45.6,43.7,30.11,East,91,0.0,0.0,93,0.00,,---,0.00,VWS V13.01,2013-09-23 11:36:00,
2013-09-23 07:41:00,45.7,43.8,30.10,East,91,0.0,0.0,93,0.00,,---,0.00,VWS V13.01,2013-09-23 11:41:00,
2013-09-23 07:46:00,45.8,44.2,30.10,East,91,0.0,0.0,94,0.00,,---,0.00,VWS V13.01,2013-09-23 11:46:00,
2013-09-23 07:51:00,45.8,44.2,30.10,East,91,0.0,0.0,94,0.00,,---,0.00,VWS V13.01,2013-09-23 11:51:00,
2013-09-23 07:56:00,45.8,44.2,30.10,East,91,0.0,0.0,94,0.00,,---,0.00,VWS V13.01,2013-09-23 11:56:00,
2013-09-23 08:02:00,45.9,44.3,30.09,East,91,0.0,0.0,94,0.00,,---,0.00,VWS V13.01,2013-09-23 12:02:00,
2013-09-23 08:07:00,46.0,44.4,30.09,East,91,0.0,0.0,94,0.00,,---,0.00,VWS V13.01,2013-09-23 12:07:00,
2013-09-23 08:12:00,46.0,44.1,30.09,East,91,0.0,0.0,93,0.00,,---,0.00,VWS V13.01,2013-09-23 12:12:00,
2013-09-23 08:17:00,46.1,44.2,30.08,East,91,0.0,0.0,93,0.00,,---,0.00,VWS V13.01,2013-09-23 12:17:00,
2013-09-23 08:22:00,46.3,44.4,30.08,East,91,0.0,0.0,93,0.00,,---,0.00,VWS V13.01,2013-09-23 12:22:00,
2013-09-23 08:27:00,46.3,44.4,30.08,East,91,0.0,0.0,93,0.00,,---,0.00,VWS V13.01,2013-09-23 12:27:00,
2013-09-23 08:32:00,46.4,44.5,30.08,East,91,0.0,0.0,93,0.00,,---,0.00,VWS V13.01,2013-09-23 12:32:00,
2013-09-23 08:37:00,46.4,44.2,30.07,East,91,0.0,0.0,92,0.00,,---,0.00,VWS V13.01,2013-09-23 12:37:00,
2013-09-23 08:42:00,46.6,44.4,30.07,East,91,0.0,0.0,92,0.00,,---,0.00,VWS V13.01,2013-09-23 12:42:00,
2013-09-23 08:47:00,46.7,44.8,30.07,East,91,0.0,0.0,93,0.00,,---,0.00,VWS V13.01,2013-09-23 12:47:00,
2013-09-23 08:52:00,46.8,44.9,30.07,East,91,0.0,0.0,93,0.00,,---,0.00,VWS V13.01,2013-09-23 12:52:00,
2013-09-23 08:57:00,46.8,44.9,30.07,East,91,0.0,0.0,93,0.00,,---,0.00,VWS V13.01,2013-09-23 12:57:00,
2013-09-23 09:02:00,46.9,44.7,30.07,East,91,0.0,1.0,92,0.00,,---,0.00,VWS V13.01,2013-09-23 13:02:00,
2013-09-23 09:07:00,47.0,44.8,30.07,East,91,0.0,1.0,92,0.00,,---,0.00,VWS V13.01,2013-09-23 13:07:00,
2013-09-23 09:12:00,47.0,44.8,30.07,East,91,0.0,1.0,92,0.00,,---,0.00,VWS V13.01,2013-09-23 13:12:00,
2013-09-23 09:17:00,47.2,45.0,30.07,East,91,0.0,1.0,92,0.00,,---,0.00,VWS V13.01,2013-09-23 13:17:00,
2013-09-23 09:22:00,47.3,44.8,30.07,East,91,0.0,1.0,91,0.00,,---,0.00,VWS V13.01,2013-09-23 13:22:00,
2013-09-23 09:28:00,47.5,45.0,30.07,East,91,0.0,1.0,91,0.00,,---,0.00,VWS V13.01,2013-09-23 13:28:00,
2013-09-23 09:33:00,47.7,45.2,30.07,East,91,0.0,0.0,91,0.00,,---,0.00,VWS V13.01,2013-09-23 13:33:00,
2013-09-23 09:38:00,47.8,45.0,30.06,East,91,0.0,0.0,90,0.00,,---,0.00,VWS V13.01,2013-09-23 13:38:00,
2013-09-23 09:43:00,47.9,44.8,30.06,East,91,0.0,0.0,89,0.00,,---,0.00,VWS V13.01,2013-09-23 13:43:00,
2013-09-23 09:48:00,48.1,44.7,30.06,East,91,0.0,0.0,88,0.00,,---,0.00,VWS V13.01,2013-09-23 13:48:00,
2013-09-23 09:53:00,48.2,44.5,30.06,East,91,0.0,0.0,87,0.00,,---,0.00,VWS V13.01,2013-09-23 13:53:00,
2013-09-23 09:58:00,48.5,44.5,30.06,East,91,0.0,0.0,86,0.00,,---,0.00,VWS V13.01,2013-09-23 13:58:00,
2013-09-23 10:03:00,48.8,44.5,30.06,East,91,0.0,1.0,85,0.00,,---,0.00,VWS V13.01,2013-09-23 14:03:00,
2013-09-23 10:08:00,49.0,44.4,30.06,East,91,0.0,1.0,84,0.00,,---,0.00,VWS V13.01,2013-09-23 14:08:00,
2013-09-23 10:13:00,49.3,44.4,30.06,East,91,0.0,1.0,83,0.00,,---,0.00,VWS V13.01,2013-09-23 14:13:00,
2013-09-23 10:18:00,49.6,44.7,30.06,East,91,0.0,1.0,83,0.00,,---,0.00,VWS V13.01,2013-09-23 14:18:00,
2013-09-23 10:23:00,50.0,44.4,30.06,East,91,0.0,1.0,81,0.00,,---,0.00,VWS V13.01,2013-09-23 14:23:00,
2013-09-23 10:28:00,50.4,44.5,30.06,East,88,0.0,1.0,80,0.00,,---,0.00,VWS V13.01,2013-09-23 14:28:00,
2013-09-23 10:33:00,50.6,44.0,30.06,East,88,0.0,0.0,78,0.00,,---,0.00,VWS V13.01,2013-09-23 14:33:00,
2013-09-23 10:38:00,51.1,44.8,30.06,East,89,0.0,1.0,79,0.00,,---,0.00,VWS V13.01,2013-09-23 14:38:00,
2013-09-23 10:44:00,51.3,45.0,30.06,East,90,0.0,1.0,79,0.00,,---,0.00,VWS V13.01,2013-09-23 14:44:00,
2013-09-23 10:49:00,51.5,44.5,30.06,East,90,0.0,1.0,77,0.00,,---,0.00,VWS V13.01,2013-09-23 14:49:00,
2013-09-23 10:54:00,51.7,44.4,30.06,East,90,0.0,1.0,76,0.00,,---,0.00,VWS V13.01,2013-09-23 14:54:00,
2013-09-23 10:59:00,52.0,44.7,30.07,East,88,4.0,4.0,76,0.00,,---,0.00,VWS V13.01,2013-09-23 14:59:00,
2013-09-23 11:04:00,52.2,43.8,30.07,East,86,0.0,2.0,73,0.00,,---,0.00,VWS V13.01,2013-09-23 15:04:00,
2013-09-23 11:09:00,52.4,43.7,30.07,East,86,0.0,2.0,72,0.00,,---,0.00,VWS V13.01,2013-09-23 15:09:00,
2013-09-23 11:14:00,52.3,43.9,30.07,East,86,1.0,6.0,73,0.00,,---,0.00,VWS V13.01,2013-09-23 15:14:00,
2013-09-23 11:19:00,52.0,43.6,30.07,East,96,4.0,6.0,73,0.00,,---,0.00,VWS V13.01,2013-09-23 15:19:00,
2013-09-23 11:24:00,52.2,43.5,30.07,East,82,0.0,8.0,72,0.00,,---,0.00,VWS V13.01,2013-09-23 15:24:00,
2013-09-23 11:29:00,52.3,43.9,30.07,ENE,74,0.0,8.0,73,0.00,,---,0.00,VWS V13.01,2013-09-23 15:29:00,
2013-09-23 11:34:00,52.7,43.9,30.07,ENE,63,0.0,6.0,72,0.00,,---,0.00,VWS V13.01,2013-09-23 15:34:00,
2013-09-23 11:39:00,52.9,43.8,30.07,NE,48,0.0,6.0,71,0.00,,---,0.00,VWS V13.01,2013-09-23 15:39:00,
2013-09-23 11:44:00,52.9,43.0,30.07,NE,37,0.0,7.0,69,0.00,,---,0.00,VWS V13.01,2013-09-23 15:44:00,
2013-09-23 11:50:00,52.8,42.5,30.07,NNE,22,0.0,7.0,68,0.00,,---,0.00,VWS V13.01,2013-09-23 15:50:00,
2013-09-23 11:55:00,52.8,42.9,30.07,NE,51,0.0,7.0,69,0.00,,---,0.00,VWS V13.01,2013-09-23 15:55:00,
2013-09-23 12:00:00,53.0,43.1,30.07,NE,51,0.0,7.0,69,0.00,,---,0.00,VWS V13.01,2013-09-23 16:00:00,
2013-09-23 12:05:00,52.9,43.8,30.07,East,89,5.0,12.0,71,0.00,,---,0.00,VWS V13.01,2013-09-23 16:05:00,
2013-09-23 12:10:00,52.8,43.3,30.07,East,91,5.0,12.0,70,0.00,,---,0.00,VWS V13.01,2013-09-23 16:10:00,
2013-09-23 12:15:00,52.8,43.7,30.07,ESE,115,6.0,12.0,71,0.00,,---,0.00,VWS V13.01,2013-09-23 16:15:00,
2013-09-23 12:20:00,53.2,44.4,30.07,ESE,111,0.0,12.0,72,0.00,,---,0.00,VWS V13.01,2013-09-23 16:20:00,
2013-09-23 12:25:00,53.5,44.3,30.07,ESE,105,0.0,12.0,71,0.00,,---,0.00,VWS V13.01,2013-09-23 16:25:00,
2013-09-23 12:30:00,53.3,43.8,30.07,NNE,15,0.0,5.0,70,0.00,,---,0.00,VWS V13.01,2013-09-23 16:30:00,
2013-09-23 12:35:00,53.1,44.0,30.07,NNW,342,0.0,6.0,71,0.00,,---,0.00,VWS V13.01,2013-09-23 16:35:00,
2013-09-23 12:40:00,53.1,43.6,30.07,NNW,346,0.0,6.0,70,0.00,,---,0.00,VWS V13.01,2013-09-23 16:40:00,
2013-09-23 12:45:00,53.3,44.2,30.06,NE,39,0.0,6.0,71,0.00,,---,0.00,VWS V13.01,2013-09-23 16:45:00,
2013-09-23 12:50:00,53.7,44.9,30.07,NE,53,0.0,6.0,72,0.00,,---,0.00,VWS V13.01,2013-09-23 16:50:00,
2013-09-23 12:56:00,53.7,44.5,30.06,ESE,103,5.0,8.0,71,0.00,,---,0.00,VWS V13.01,2013-09-23 16:56:00,
2013-09-23 13:01:00,53.5,44.3,30.06,East,97,0.0,0.0,71,0.00,,---,0.00,VWS V13.01,2013-09-23 17:01:00,
2013-09-23 13:06:00,53.4,43.9,30.06,East,91,0.0,6.0,70,0.00,,---,0.00,VWS V13.01,2013-09-23 17:06:00,
2013-09-23 13:11:00,53.5,44.0,30.06,East,92,0.0,6.0,70,0.00,,---,0.00,VWS V13.01,2013-09-23 17:11:00,
2013-09-23 13:16:00,53.7,44.2,30.06,East,90,0.0,6.0,70,0.00,,---,0.00,VWS V13.01,2013-09-23 17:16:00,
2013-09-23 13:21:00,53.7,43.8,30.06,East,82,0.0,6.0,69,0.00,,---,0.00,VWS V13.01,2013-09-23 17:21:00,
2013-09-23 13:26:00,53.9,44.3,30.06,NNE,24,0.0,6.0,70,0.00,,---,0.00,VWS V13.01,2013-09-23 17:26:00,
2013-09-23 13:31:00,54.2,44.3,30.06,NW,323,4.0,6.0,69,0.00,,---,0.00,VWS V13.01,2013-09-23 17:31:00,
2013-09-23 13:36:00,54.4,43.7,30.06,NW,322,0.0,6.0,67,0.00,,---,0.00,VWS V13.01,2013-09-23 17:36:00,
2013-09-23 13:41:00,54.7,44.0,30.06,NW,322,0.0,6.0,67,0.00,,---,0.00,VWS V13.01,2013-09-23 17:41:00,
2013-09-23 13:46:00,54.9,43.4,30.06,NW,323,0.0,6.0,65,0.00,,---,0.00,VWS V13.01,2013-09-23 17:46:00,
2013-09-23 13:51:00,55.1,44.0,30.06,NW,323,0.0,6.0,66,0.00,,---,0.00,VWS V13.01,2013-09-23 17:51:00,
2013-09-23 13:56:00,55.1,44.0,30.06,NNE,28,0.0,6.0,66,0.00,,---,0.00,VWS V13.01,2013-09-23 17:56:00,
2013-09-23 14:01:00,54.9,43.8,30.06,ENE,68,0.0,5.0,66,0.00,,---,0.00,VWS V13.01,2013-09-23 18:01:00,
2013-09-23 14:06:00,55.0,44.3,30.05,ENE,75,0.0,5.0,67,0.00,,---,0.00,VWS V13.01,2013-09-23 18:06:00,
2013-09-23 14:11:00,55.1,44.3,30.05,ESE,105,0.0,6.0,67,0.00,,---,0.00,VWS V13.01,2013-09-23 18:11:00,
2013-09-23 14:17:00,55.2,43.2,30.05,NNE,33,0.0,6.0,64,0.00,,---,0.00,VWS V13.01,2013-09-23 18:17:00,
2013-09-23 14:22:00,55.4,43.0,30.05,NW,314,0.0,8.0,63,0.00,,---,0.00,VWS V13.01,2013-09-23 18:22:00,
2013-09-23 14:27:00,55.5,43.5,30.05,NW,314,0.0,8.0,64,0.00,,---,0.00,VWS V13.01,2013-09-23 18:27:00,
2013-09-23 14:32:00,56.2,45.4,30.05,West,263,6.0,9.0,67,0.00,,---,0.00,VWS V13.01,2013-09-23 18:32:00,
2013-09-23 14:37:00,56.9,45.3,30.04,North,355,7.0,12.0,65,0.00,,---,0.00,VWS V13.01,2013-09-23 18:37:00,
2013-09-23 14:42:00,57.0,45.0,30.05,NNW,338,4.0,12.0,64,0.00,,---,0.00,VWS V13.01,2013-09-23 18:42:00,
2013-09-23 14:47:00,56.5,44.5,30.04,ENE,67,0.0,12.0,64,0.00,,---,0.00,VWS V13.01,2013-09-23 18:47:00,
2013-09-23 14:52:00,56.1,44.5,30.04,NE,53,3.0,12.0,65,0.00,,---,0.00,VWS V13.01,2013-09-23 18:52:00,
2013-09-23 14:57:00,55.8,45.0,30.04,NE,43,0.0,12.0,67,0.00,,---,0.00,VWS V13.01,2013-09-23 18:57:00,
2013-09-23 15:02:00,55.8,44.6,30.04,ENE,64,0.0,0.0,66,0.00,,---,0.00,VWS V13.01,2013-09-23 19:02:00,
2013-09-23 15:07:00,55.9,43.9,30.04,East,79,4.0,9.0,64,0.00,,---,0.00,VWS V13.01,2013-09-23 19:07:00,
2013-09-23 15:12:00,55.7,43.7,30.04,ENE,72,0.0,9.0,64,0.00,,---,0.00,VWS V13.01,2013-09-23 19:12:00,
2013-09-23 15:17:00,55.5,43.5,30.03,East,82,0.0,9.0,64,0.00,,---,0.00,VWS V13.01,2013-09-23 19:17:00,
2013-09-23 15:22:00,55.9,45.9,30.03,East,87,0.0,9.0,69,0.00,,---,0.00,VWS V13.01,2013-09-23 19:22:00,
2013-09-23 15:28:00,56.0,45.2,30.03,East,94,0.0,9.0,67,0.00,,---,0.00,VWS V13.01,2013-09-23 19:28:00,
2013-09-23 15:33:00,56.4,45.2,30.02,SE,124,0.0,2.0,66,0.00,,---,0.00,VWS V13.01,2013-09-23 19:33:00,
2013-09-23 15:38:00,56.5,44.9,30.03,NW,306,0.0,9.0,65,0.00,,---,0.00,VWS V13.01,2013-09-23 19:38:00,
2013-09-23 15:43:00,56.8,44.8,30.02,NW,313,0.0,9.0,64,0.00,,---,0.00,VWS V13.01,2013-09-23 19:43:00,
2013-09-23 15:48:00,57.5,43.7,30.02,NW,313,0.0,9.0,60,0.00,,---,0.00,VWS V13.01,2013-09-23 19:48:00,
2013-09-23 15:53:00,57.9,45.8,30.02,NW,311,4.0,9.0,64,0.00,,---,0.00,VWS V13.01,2013-09-23 19:53:00,
2013-09-23 15:58:00,57.6,44.3,30.02,NW,322,0.0,9.0,61,0.00,,---,0.00,VWS V13.01,2013-09-23 19:58:00,
2013-09-23 16:03:00,57.1,43.8,30.03,NNW,339,0.0,6.0,61,0.00,,---,0.00,VWS V13.01,2013-09-23 20:03:00,
2013-09-23 16:08:00,57.1,45.5,30.02,NNW,341,0.0,6.0,65,0.00,,---,0.00,VWS V13.01,2013-09-23 20:08:00,
2013-09-23 16:13:00,57.7,44.4,30.02,NNW,341,0.0,6.0,61,0.00,,---,0.00,VWS V13.01,2013-09-23 20:13:00,
2013-09-23 16:18:00,58.3,44.9,30.02,NNW,341,0.0,6.0,61,0.00,,---,0.00,VWS V13.01,2013-09-23 20:18:00,
2013-09-23 16:23:00,58.5,45.1,30.02,NNW,334,6.0,6.0,61,0.00,,---,0.00,VWS V13.01,2013-09-23 20:23:00,
2013-09-23 16:28:00,59.0,44.7,30.02,NW,319,0.0,6.0,59,0.00,,---,0.00,VWS V13.01,2013-09-23 20:28:00,
2013-09-23 16:33:00,59.0,45.2,30.02,NNW,342,0.0,5.0,60,0.00,,---,0.00,VWS V13.01,2013-09-23 20:33:00,
2013-09-23 16:38:00,59.0,44.3,30.02,NW,318,0.0,6.0,58,0.00,,---,0.00,VWS V13.01,2013-09-23 20:38:00,
2013-09-23 16:44:00,59.5,46.1,30.02,NNE,32,3.0,9.0,61,0.00,,---,0.00,VWS V13.01,2013-09-23 20:44:00,
2013-09-23 16:49:00,59.0,45.2,30.02,East,88,4.0,9.0,60,0.00,,---,0.00,VWS V13.01,2013-09-23 20:49:00,
2013-09-23 16:54:00,58.4,44.1,30.02,NE,46,0.0,9.0,59,0.00,,---,0.00,VWS V13.01,2013-09-23 20:54:00,
2013-09-23 16:59:00,58.4,44.1,30.03,ENE,61,1.0,9.0,59,0.00,,---,0.00,VWS V13.01,2013-09-23 20:59:00,
2013-09-23 17:04:00,58.8,44.5,30.03,NNE,16,0.0,4.0,59,0.00,,---,0.00,VWS V13.01,2013-09-23 21:04:00,
2013-09-23 17:09:00,59.0,45.2,30.03,East,82,0.0,5.0,60,0.00,,---,0.00,VWS V13.01,2013-09-23 21:09:00,
2013-09-23 17:14:00,58.6,45.6,30.03,East,95,0.0,5.0,62,0.00,,---,0.00,VWS V13.01,2013-09-23 21:14:00,
2013-09-23 17:19:00,58.6,43.9,30.03,East,96,1.0,8.0,58,0.00,,---,0.00,VWS V13.01,2013-09-23 21:19:00,
2013-09-23 17:24:00,58.5,44.2,30.03,North,11,0.0,8.0,59,0.00,,---,0.00,VWS V13.01,2013-09-23 21:24:00,
2013-09-23 17:29:00,58.9,44.6,30.03,North,9,0.0,8.0,59,0.00,,---,0.00,VWS V13.01,2013-09-23 21:29:00,
2013-09-23 17:34:00,59.0,44.7,30.03,North,5,0.0,5.0,59,0.00,,---,0.00,VWS V13.01,2013-09-23 21:34:00,
2013-09-23 17:39:00,59.4,45.5,30.03,North,360,0.0,5.0,60,0.00,,---,0.00,VWS V13.01,2013-09-23 21:39:00,
2013-09-23 17:45:00,59.0,44.7,30.03,NE,42,1.0,5.0,59,0.00,,---,0.00,VWS V13.01,2013-09-23 21:45:00,
2013-09-23 17:50:00,58.9,44.6,30.03,NE,41,0.0,5.0,59,0.00,,---,0.00,VWS V13.01,2013-09-23 21:50:00,
2013-09-23 17:55:00,59.0,45.2,30.03,NE,41,1.0,5.0,60,0.00,,---,0.00,VWS V13.01,2013-09-23 21:55:00,
2013-09-23 18:00:00,59.0,45.2,30.03,NE,40,0.0,5.0,60,0.00,,---,0.00,VWS V13.01,2013-09-23 22:00:00,
2013-09-23 18:05:00,59.0,44.7,30.03,NE,40,0.0,4.0,59,0.00,,---,0.00,VWS V13.01,2013-09-23 22:05:00,
2013-09-23 18:10:00,58.6,45.2,30.03,NE,46,0.0,4.0,61,0.00,,---,0.00,VWS V13.01,2013-09-23 22:10:00,
2013-09-23 18:15:00,58.7,45.7,30.03,NE,47,0.0,4.0,62,0.00,,---,0.00,VWS V13.01,2013-09-23 22:15:00,
2013-09-23 18:20:00,58.9,45.9,30.03,NE,47,0.0,4.0,62,0.00,,---,0.00,VWS V13.01,2013-09-23 22:20:00,
2013-09-23 18:25:00,58.6,45.6,30.03,NE,47,0.0,4.0,62,0.00,,---,0.00,VWS V13.01,2013-09-23 22:25:00,
2013-09-23 18:30:00,58.1,46.8,30.03,NE,46,0.0,0.0,66,0.00,,---,0.00,VWS V13.01,2013-09-23 22:30:00,
2013-09-23 18:35:00,57.7,46.4,30.03,NE,47,0.0,0.0,66,0.00,,---,0.00,VWS V13.01,2013-09-23 22:35:00,
2013-09-23 18:40:00,57.3,47.2,30.02,NE,47,0.0,0.0,69,0.00,,---,0.00,VWS V13.01,2013-09-23 22:40:00,
2013-09-23 18:45:00,56.1,47.6,30.02,NE,47,0.0,0.0,73,0.00,,---,0.00,VWS V13.01,2013-09-23 22:45:00,
2013-09-23 18:51:00,54.7,47.3,30.02,NE,47,0.0,0.0,76,0.00,,---,0.00,VWS V13.01,2013-09-23 22:51:00,
2013-09-23 18:56:00,53.8,46.8,30.02,NE,46,0.0,0.0,77,0.00,,---,0.00,VWS V13.01,2013-09-23 22:56:00,
2013-09-23 19:01:00,52.3,46.0,30.02,NE,47,0.0,0.0,79,0.00,,---,0.00,VWS V13.01,2013-09-23 23:01:00,
2013-09-23 19:06:00,51.3,45.7,30.02,NE,47,0.0,0.0,81,0.00,,---,0.00,VWS V13.01,2013-09-23 23:06:00,
2013-09-23 19:11:00,50.6,45.3,30.03,NE,46,0.0,0.0,82,0.00,,---,0.00,VWS V13.01,2013-09-23 23:11:00,
2013-09-23 19:16:00,49.8,45.2,30.03,NE,47,0.0,0.0,84,0.00,,---,0.00,VWS V13.01,2013-09-23 23:16:00,
2013-09-23 19:21:00,49.0,44.7,30.02,NE,47,0.0,1.0,85,0.00,,---,0.00,VWS V13.01,2013-09-23 23:21:00,
2013-09-23 19:27:00,48.5,44.5,30.03,NE,47,0.0,1.0,86,0.00,,---,0.00,VWS V13.01,2013-09-23 23:27:00,
2013-09-23 19:32:00,48.2,44.2,30.03,NE,47,0.0,0.0,86,0.00,,---,0.00,VWS V13.01,2013-09-23 23:32:00,
2013-09-23 19:37:00,47.9,44.2,30.03,NE,47,0.0,0.0,87,0.00,,---,0.00,VWS V13.01,2013-09-23 23:37:00,
2013-09-23 19:42:00,47.5,43.5,30.03,NE,46,0.0,0.0,86,0.00,,---,0.00,VWS V13.01,2013-09-23 23:42:00,
2013-09-23 19:47:00,46.9,42.9,30.03,NE,46,0.0,0.0,86,0.00,,---,0.00,VWS V13.01,2013-09-23 23:47:00,
2013-09-23 19:52:00,46.3,43.0,30.03,NE,47,0.0,0.0,88,0.00,,---,0.00,VWS V13.01,2013-09-23 23:52:00,
2013-09-23 19:57:00,45.9,42.5,30.03,NE,47,0.0,0.0,88,0.00,,---,0.00,VWS V13.01,2013-09-23 23:57:00,
2013-09-23 20:02:00,45.6,42.5,30.04,NE,46,0.0,0.0,89,0.00,,---,0.00,VWS V13.01,2013-09-24 00:02:00,
2013-09-23 20:07:00,45.2,42.2,30.04,NE,46,0.0,0.0,89,0.00,,---,0.00,VWS V13.01,2013-09-24 00:07:00,
2013-09-23 20:12:00,45.0,42.5,30.04,NE,46,0.0,0.0,91,0.00,,---,0.00,VWS V13.01,2013-09-24 00:12:00,
2013-09-23 20:17:00,44.6,42.1,30.04,NE,47,0.0,0.0,91,0.00,,---,0.00,VWS V13.01,2013-09-24 00:17:00,
2013-09-23 20:22:00,44.2,41.7,30.05,NE,47,0.0,0.0,91,0.00,,---,0.00,VWS V13.01,2013-09-24 00:22:00,
2013-09-23 20:28:00,43.9,41.7,30.04,NE,47,0.0,0.0,92,0.00,,---,0.00,VWS V13.01,2013-09-24 00:28:00,
2013-09-23 20:33:00,43.6,41.4,30.04,NE,47,0.0,0.0,92,0.00,,---,0.00,VWS V13.01,2013-09-24 00:33:00,
2013-09-23 20:38:00,43.3,41.4,30.04,NE,47,0.0,0.0,93,0.00,,---,0.00,VWS V13.01,2013-09-24 00:38:00,
2013-09-23 20:43:00,43.1,41.2,30.04,NE,46,0.0,0.0,93,0.00,,---,0.00,VWS V13.01,2013-09-24 00:43:00,
2013-09-23 20:48:00,42.9,41.0,30.05,NE,46,0.0,0.0,93,0.00,,---,0.00,VWS V13.01,2013-09-24 00:48:00,
2013-09-23 20:53:00,42.7,40.8,30.05,NE,47,0.0,0.0,93,0.00,,---,0.00,VWS V13.01,2013-09-24 00:53:00,
2013-09-23 20:58:00,42.5,40.6,30.05,NE,47,0.0,0.0,93,0.00,,---,0.00,VWS V13.01,2013-09-24 00:58:00,
2013-09-23 21:03:00,42.3,40.7,30.05,NE,47,0.0,0.0,94,0.00,,---,0.00,VWS V13.01,2013-09-24 01:03:00,
2013-09-23 21:08:00,42.0,40.4,30.05,NE,46,0.0,0.0,94,0.00,,---,0.00,VWS V13.01,2013-09-24 01:08:00,
2013-09-23 21:13:00,41.3,39.4,30.05,NE,47,0.0,0.0,93,0.00,,---,0.00,VWS V13.01,2013-09-24 01:13:00,
2013-09-23 21:18:00,41.1,39.5,30.05,NE,47,0.0,0.0,94,0.00,,---,0.00,VWS V13.01,2013-09-24 01:18:00,
2013-09-23 21:23:00,40.9,39.3,30.05,NE,46,0.0,1.0,94,0.00,,---,0.00,VWS V13.01,2013-09-24 01:23:00,
2013-09-23 21:29:00,40.5,38.9,30.05,NE,47,0.0,1.0,94,0.00,,---,0.00,VWS V13.01,2013-09-24 01:29:00,
2013-09-23 21:34:00,40.3,39.0,30.05,NE,46,0.0,0.0,95,0.00,,---,0.00,VWS V13.01,2013-09-24 01:34:00,
2013-09-23 21:39:00,40.3,39.0,30.05,NE,47,0.0,0.0,95,0.00,,---,0.00,VWS V13.01,2013-09-24 01:39:00,
2013-09-23 21:44:00,39.8,38.5,30.05,NE,46,0.0,0.0,95,0.00,,---,0.00,VWS V13.01,2013-09-24 01:44:00,
2013-09-23 21:49:00,39.7,38.4,30.05,NE,47,0.0,0.0,95,0.00,,---,0.00,VWS V13.01,2013-09-24 01:49:00,
2013-09-23 21:54:00,39.7,38.4,30.05,NE,47,0.0,0.0,95,0.00,,---,0.00,VWS V13.01,2013-09-24 01:54:00,
2013-09-23 21:59:00,39.7,38.4,30.05,NE,46,0.0,0.0,95,0.00,,---,0.00,VWS V13.01,2013-09-24 01:59:00,
2013-09-23 22:04:00,39.5,38.2,30.06,NE,46,0.0,0.0,95,0.00,,---,0.00,VWS V13.01,2013-09-24 02:04:00,
2013-09-23 22:09:00,39.3,38.0,30.06,NE,46,0.0,0.0,95,0.00,,---,0.00,VWS V13.01,2013-09-24 02:09:00,
2013-09-23 22:14:00,38.9,37.6,30.06,NE,47,0.0,0.0,95,0.00,,---,0.00,VWS V13.01,2013-09-24 02:14:00,
2013-09-23 22:19:00,38.6,37.3,30.06,NE,46,0.0,0.0,95,0.00,,---,0.00,VWS V13.01,2013-09-24 02:19:00,
2013-09-23 22:25:00,38.4,37.1,30.06,NE,47,0.0,0.0,95,0.00,,---,0.00,VWS V13.01,2013-09-24 02:25:00,
2013-09-23 22:30:00,38.2,36.9,30.06,NE,47,0.0,0.0,95,0.00,,---,0.00,VWS V13.01,2013-09-24 02:30:00,
2013-09-23 22:35:00,38.2,37.2,30.07,NE,47,0.0,0.0,96,0.00,,---,0.00,VWS V13.01,2013-09-24 02:35:00,
2013-09-23 22:40:00,38.2,37.2,30.07,NE,47,0.0,0.0,96,0.00,,---,0.00,VWS V13.01,2013-09-24 02:40:00,
2013-09-23 22:45:00,38.2,37.2,30.07,NE,47,0.0,0.0,96,0.00,,---,0.00,VWS V13.01,2013-09-24 02:45:00,
2013-09-23 22:50:00,38.2,37.2,30.07,NE,47,0.0,0.0,96,0.00,,---,0.00,VWS V13.01,2013-09-24 02:50:00,
2013-09-23 22:55:00,38.3,37.3,30.07,NE,47,0.0,0.0,96,0.00,,---,0.00,VWS V13.01,2013-09-24 02:55:00,
2013-09-23 23:00:00,38.4,37.4,30.08,NE,47,0.0,0.0,96,0.00,,---,0.00,VWS V13.01,2013-09-24 03:00:00,
2013-09-23 23:05:00,38.2,37.2,30.08,NE,47,0.0,0.0,96,0.00,,---,0.00,VWS V13.01,2013-09-24 03:05:00,
2013-09-23 23:10:00,38.0,37.0,30.08,NE,47,0.0,0.0,96,0.00,,---,0.00,VWS V13.01,2013-09-24 03:10:00,
2013-09-23 23:16:00,37.9,36.9,30.08,NE,47,0.0,0.0,96,0.00,,---,0.00,VWS V13.01,2013-09-24 03:16:00,
2013-09-23 23:21:00,37.8,36.8,30.08,NE,47,0.0,0.0,96,0.00,,---,0.00,VWS V13.01,2013-09-24 03:21:00,
2013-09-23 23:26:00,37.7,36.7,30.08,NE,47,0.0,0.0,96,0.00,,---,0.00,VWS V13.01,2013-09-24 03:26:00,
2013-09-23 23:31:00,37.7,36.7,30.08,NE,46,0.0,0.0,96,0.00,,---,0.00,VWS V13.01,2013-09-24 03:31:00,
2013-09-23 23:36:00,37.7,36.7,30.08,NE,47,0.0,0.0,96,0.00,,---,0.00,VWS V13.01,2013-09-24 03:36:00,
2013-09-23 23:41:00,37.6,36.6,30.08,NE,46,0.0,0.0,96,0.00,,---,0.00,VWS V13.01,2013-09-24 03:41:00,
2013-09-23 23:47:00,37.4,36.4,30.08,NE,47,0.0,0.0,96,0.00,,---,0.00,VWS V13.01,2013-09-24 03:47:00,
2013-09-23 23:52:00,37.4,36.4,30.08,NE,47,0.0,0.0,96,0.00,,---,0.00,VWS V13.01,2013-09-24 03:52:00,
2013-09-23 23:57:00,37.3,36.3,30.08,NE,47,0.0,0.0,96,0.00,,---,0.00,VWS V13.01,2013-09-24 03:57:00,